CW3508 Weather Reports


Display with metric or nautical units.
time (UTC)temp
F
wind
direction
speed
MPH
gust
MPH
rain 1hr
in
rain 24hr
in
rain mn
in
humidity
%
barometer
mb
20260504185050 80 209 1.0 5.0 0.00 0.00 0.00 45 1011.9
20260504184516 80 167 2.0 5.0 0.00 0.00 0.00 46 1011.9
20260504184028 79 196 1.0 5.0 0.00 0.00 0.00 49 1012.2
20260504183541 80 208 1.0 5.0 0.00 0.00 0.00 46 1012.2
20260504183047 80 209 2.0 5.0 0.00 0.00 0.00 46 1012.2
20260504182516 80 152 1.0 3.0 0.00 0.00 0.00 47 1012.4
20260504182036 80 148 2.0 3.0 0.00 0.00 0.00 45 1012.4
20260504181530 80 127 1.0 2.0 0.00 0.00 0.00 46 1012.4
20260504181040 80 127 0.0 2.0 0.00 0.00 0.00 44 1012.5
20260504180533 81 127 1.0 3.0 0.00 0.00 0.00 47 1012.5
20260504180034 80 118 1.0 3.0 0.00 0.00 0.00 49 1012.5
20260504175531 79 225 1.0 3.0 0.00 0.00 0.00 49 1012.8
20260504175019 79 156 0.0 3.0 0.00 0.00 0.00 50 1012.8
20260504174535 78 172 1.0 4.0 0.00 0.00 0.00 45 1012.8
20260504174034 78 170 1.0 5.0 0.00 0.00 0.00 46 1012.9
20260504173533 78 127 1.0 5.0 0.00 0.00 0.00 46 1012.9
20260504173019 78 162 1.0 5.0 0.00 0.00 0.00 50 1012.9
20260504172533 78 155 1.0 5.0 0.00 0.00 0.00 45 1013.1
20260504172056 78 178 2.0 4.0 0.00 0.00 0.00 46 1013.1
20260504171018 77 223 1.0 4.0 0.00 0.00 0.00 49 1013.4
20260504170519 77 169 1.0 4.0 0.00 0.00 0.00 48 1013.4
20260504151043 67 153 1.0 5.0 0.00 0.00 0.00 70 1014.1
20260504150529 66 109 2.0 5.0 0.00 0.00 0.00 70 1014.1
20260504141025 57 154 1.0 3.0 0.00 0.00 0.00 87 1014.6
20260504140541 57 154 1.0 2.0 0.00 0.00 0.00 88 1014.6
20260504130520 51 152 0.0 0.0 0.00 0.00 0.00 94 1014.8
20260504110522 47 152 0.0 0.0 0.00 0.00 0.00 92 1014.0
20260504100600 48 152 0.0 0.0 0.00 0.00 0.00 92 1014.0
20260504081536 49 152 0.0 0.0 0.00 0.00 0.00 91 1013.9
20260504081037 49 152 0.0 0.0 0.00 0.00 0.00 91 1014.0
20260504080538 49 152 0.0 0.0 0.00 0.00 0.00 91 1014.0
20260504050536 52 152 0.0 1.0 0.00 0.00 0.00 87 1015.0
20260504045530 53 152 0.0 0.0 0.00 0.00 0.00 86 1015.0
20260504045034 53 152 0.0 0.0 0.00 0.00 0.00 86 1015.0
20260504044522 53 152 0.0 0.0 0.00 0.00 0.00 86 1015.0
20260504044033 53 152 0.0 1.0 0.00 0.00 0.00 86 1015.3
20260504043547 53 152 0.0 1.0 0.00 0.00 0.00 85 1015.3
20260504043059 53 152 0.0 0.0 0.00 0.00 0.00 85 1015.3
20260504042543 53 152 0.0 1.0 0.00 0.00 0.00 85 1015.3
20260504042055 53 152 0.0 1.0 0.00 0.00 0.00 85 1015.3
20260504041523 54 152 0.0 1.0 0.00 0.00 0.00 84 1015.3
20260504041028 54 152 0.0 1.0 0.00 0.00 0.00 84 1015.3
20260504040534 54 152 0.0 0.0 0.00 0.00 0.00 84 1015.3
20260504040034 54 152 0.0 0.0 0.00 0.00 0.00 83 1015.3
20260504035533 54 152 0.0 0.0 0.00 0.00 0.00 83 1015.5
20260504035017 54 152 0.0 0.0 0.00 0.00 0.00 82 1015.5
20260504034537 55 152 0.0 0.0 0.00 0.00 0.00 82 1015.5
20260504034042 55 152 0.0 0.0 0.00 0.00 0.00 81 1015.5
20260504033542 55 152 0.0 0.0 0.00 0.00 0.00 80 1015.5
20260504033028 55 152 0.0 0.0 0.00 0.00 0.00 80 1015.5
20260504032537 55 152 0.0 0.0 0.00 0.00 0.00 80 1015.5
20260504032038 55 152 0.0 0.0 0.00 0.00 0.00 79 1015.5
20260504031532 55 152 0.0 0.0 0.00 0.00 0.00 79 1015.5
20260504031019 56 152 0.0 0.0 0.00 0.00 0.00 79 1015.5
20260504030523 56 152 0.0 0.0 0.00 0.00 0.00 79 1015.5
20260504030032 56 152 0.0 0.0 0.00 0.00 0.00 79 1015.5
20260504025545 56 152 0.0 1.0 0.00 0.00 0.00 78 1015.4
20260504025039 56 152 0.0 1.0 0.00 0.00 0.00 78 1015.4
20260504024541 57 152 0.0 1.0 0.00 0.00 0.00 78 1015.4
20260504024028 57 152 0.0 1.0 0.00 0.00 0.00 77 1015.3
20260504023530 57 152 0.0 0.0 0.00 0.00 0.00 77 1015.3
20260504023032 57 152 0.0 1.0 0.00 0.00 0.00 77 1015.3
20260504022525 57 152 0.0 1.0 0.00 0.00 0.00 76 1015.0
20260504022020 58 152 0.0 0.0 0.00 0.00 0.00 76 1015.0
20260504021523 58 152 0.0 1.0 0.00 0.00 0.00 75 1015.0
20260504021026 58 152 0.0 1.0 0.00 0.00 0.00 74 1015.0
20260504020547 58 152 0.0 0.0 0.00 0.00 0.00 74 1015.0
20260504020033 58 152 0.0 0.0 0.00 0.00 0.00 74 1015.0
20260504015518 59 152 0.0 1.0 0.00 0.00 0.00 74 1015.0
20260504015056 59 152 0.0 1.0 0.00 0.00 0.00 73 1015.0
20260504014523 59 152 0.0 1.0 0.00 0.00 0.00 72 1015.0
20260504014028 60 152 0.0 0.0 0.00 0.00 0.00 71 1014.6
20260504013531 60 152 0.0 0.0 0.00 0.00 0.00 71 1014.6
20260504013019 61 152 0.0 0.0 0.00 0.00 0.00 70 1014.6
20260504012525 61 152 0.0 0.0 0.00 0.00 0.00 69 1014.6
20260504012032 61 152 0.0 0.0 0.00 0.00 0.00 67 1014.6
20260504011523 62 152 0.0 0.0 0.00 0.00 0.00 66 1014.6
20260504011025 62 152 0.0 0.0 0.00 0.00 0.00 64 1014.5
20260504010532 62 152 0.0 0.0 0.00 0.00 0.00 65 1014.5
20260504010022 63 152 0.0 1.0 0.00 0.00 0.00 63 1014.5
20260504005536 63 152 0.0 1.0 0.00 0.00 0.00 61 1014.4
20260504005020 64 152 0.0 1.0 0.00 0.00 0.00 61 1014.4
20260504004521 64 152 0.0 1.0 0.00 0.00 0.00 62 1014.4
20260504004052 64 152 0.0 0.0 0.00 0.00 0.00 60 1014.3
20260504003606 64 152 0.0 0.0 0.00 0.00 0.00 59 1014.3
20260504003046 65 152 0.0 0.0 0.00 0.00 0.00 59 1014.3
20260504002554 65 152 0.0 0.0 0.00 0.00 0.00 59 1014.3
20260504002044 65 152 0.0 0.0 0.00 0.00 0.00 59 1014.3
20260504001543 66 152 0.0 0.0 0.00 0.00 0.00 60 1014.3
20260504001043 66 152 0.0 0.0 0.00 0.00 0.00 58 1014.2
20260504000533 66 152 0.0 0.0 0.00 0.00 0.00 56 1014.2
20260504000025 66 152 0.0 0.0 0.00 0.00 0.00 57 1014.2
20260503235526 66 152 0.0 1.0 0.00 0.00 0.00 55 1014.1
20260503234522 67 152 0.0 1.0 0.00 0.00 0.00 55 1014.1
20260503234023 67 152 0.0 1.0 0.00 0.00 0.00 54 1014.1
20260503233541 67 152 0.0 1.0 0.00 0.00 0.00 53 1014.1
20260503233026 67 152 0.0 1.0 0.00 0.00 0.00 54 1014.1
20260503232528 67 152 0.0 1.0 0.00 0.00 0.00 55 1014.1
20260503232017 68 152 0.0 2.0 0.00 0.00 0.00 53 1014.1
20260503231533 68 152 1.0 2.0 0.00 0.00 0.00 53 1014.1
20260503231044 68 152 0.0 1.0 0.00 0.00 0.00 51 1014.3
20260503230546 68 152 0.0 1.0 0.00 0.00 0.00 52 1014.3
20260503230044 69 152 0.0 1.0 0.00 0.00 0.00 53 1014.3
20260503225528 69 152 0.0 2.0 0.00 0.00 0.00 53 1014.3
20260503225032 69 152 1.0 2.0 0.00 0.00 0.00 53 1014.3
20260503224520 69 152 0.0 2.0 0.00 0.00 0.00 51 1014.3
20260503224037 70 152 1.0 2.0 0.00 0.00 0.00 52 1014.3
20260503223545 70 152 0.0 2.0 0.00 0.00 0.00 51 1014.3
20260503223046 70 152 1.0 2.0 0.00 0.00 0.00 52 1014.3
20260503222540 70 152 0.0 2.0 0.00 0.00 0.00 46 1014.5
20260503222045 70 152 0.0 2.0 0.00 0.00 0.00 47 1014.5
20260503221529 70 152 1.0 3.0 0.00 0.00 0.00 47 1014.5
20260503220540 70 145 1.0 2.0 0.00 0.00 0.00 44 1014.5
20260503220043 70 145 0.0 2.0 0.00 0.00 0.00 47 1014.5
20260503215551 70 145 0.0 3.0 0.00 0.00 0.00 46 1014.5
20260503215029 70 145 1.0 3.0 0.00 0.00 0.00 45 1014.5
20260503214535 70 145 0.0 2.0 0.00 0.00 0.00 45 1014.5
20260503214020 70 145 0.0 3.0 0.00 0.00 0.00 46 1014.7
20260503213047 70 145 1.0 3.0 0.00 0.00 0.00 48 1014.7
20260503212533 70 145 1.0 3.0 0.00 0.00 0.00 46 1015.0
20260503212020 71 145 0.0 2.0 0.00 0.00 0.00 48 1015.0
20260503211539 71 145 0.0 1.0 0.00 0.00 0.00 43 1015.0
20260503211052 71 145 0.0 2.0 0.00 0.00 0.00 48 1015.0
20260503210537 71 145 0.0 2.0 0.00 0.00 0.00 46 1015.0
20260503210032 71 148 0.0 2.0 0.00 0.00 0.00 47 1015.0
20260503205517 71 318 0.0 4.0 0.00 0.00 0.00 45 1015.2
20260503205052 71 147 1.0 4.0 0.00 0.00 0.00 44 1015.2
20260503204052 71 190 1.0 3.0 0.00 0.00 0.00 43 1015.5
20260503203519 72 179 0.0 5.0 0.00 0.00 0.00 44 1015.5
20260503203100 72 184 2.0 5.0 0.00 0.00 0.00 44 1015.5
20260503202527 72 147 1.0 2.0 0.00 0.00 0.00 42 1015.9
20260503202038 72 145 1.0 2.0 0.00 0.00 0.00 46 1015.9
20260503201540 71 145 0.0 3.0 0.00 0.00 0.00 44 1015.9
20260503201022 71 283 0.0 2.0 0.00 0.00 0.00 44 1016.1
20260503200535 71 292 0.0 4.0 0.00 0.00 0.00 44 1016.1
20260503200018 71 166 1.0 4.0 0.00 0.00 0.00 45 1016.1
20260503195522 71 194 1.0 3.0 0.00 0.00 0.00 46 1016.4
20260503195042 71 173 1.0 3.0 0.00 0.00 0.00 43 1016.4
20260503194543 71 162 1.0 3.0 0.00 0.00 0.00 44 1016.4
20260503194042 71 281 1.0 6.0 0.00 0.00 0.00 44 1016.6
20260503193529 72 163 2.0 6.0 0.00 0.00 0.00 43 1016.6
20260503193032 72 319 1.0 3.0 0.00 0.00 0.00 44 1016.6
20260503192517 72 321 1.0 3.0 0.00 0.00 0.00 43 1016.8
20260503191539 71 301 1.0 2.0 0.00 0.00 0.00 44 1016.8
20260503191029 71 317 1.0 3.0 0.00 0.00 0.00 47 1017.1
20260503190526 71 154 1.0 3.0 0.00 0.00 0.00 44 1017.1
20260503190044 71 151 1.0 3.0 0.00 0.00 0.00 41 1017.1
20260503185532 71 227 1.0 4.0 0.00 0.00 0.00 45 1017.4